Hourly Weather Ruchkovo

Today, 20 April, Tuesday

Time Temperature Precipitation Wind Pressure Humidity
00:00 +4°C° 0 mm 4 mps 753 mmHg 61%
01:00 +3°C° 0 mm 3 mps 753 mmHg 62%
02:00 +2°C° 0 mm 3 mps 752 mmHg 63%
03:00 +2°C° 0 mm 3 mps 752 mmHg 70%
04:00 +1°C° 0 mm 3 mps 752 mmHg 76%
05:00 +1°C° 0 mm 3 mps 752 mmHg 83%
06:00 +1°C° 0.1 mm 4 mps 752 mmHg 78%
07:00 +1°C° 0.1 mm 4 mps 752 mmHg 73%
08:00 +3°C° 0.1 mm 4 mps 752 mmHg 68%
09:00 +5°C° 0 mm 5 mps 751 mmHg 64%
10:00 +6°C° 0 mm 5 mps 751 mmHg 59%
11:00 +7°C° 0 mm 5 mps 750 mmHg 55%
12:00 +6°C° 0 mm 5 mps 750 mmHg 62%
13:00 +5°C° 0 mm 6 mps 750 mmHg 70%
14:00 +4°C° 0 mm 6 mps 750 mmHg 77%
15:00 +3°C° 0.1 mm 5 mps 749 mmHg 82%
16:00 +2°C° 0.1 mm 5 mps 749 mmHg 87%
17:00 +3°C° 0.1 mm 4 mps 748 mmHg 92%
18:00 +3°C° 0.3 mm 4 mps 748 mmHg 94%
19:00 +3°C° 0.3 mm 4 mps 747 mmHg 95%
20:00 +3°C° 0.3 mm 3 mps 747 mmHg 96%
21:00 +2°C° 0.2 mm 3 mps 746 mmHg 96%
22:00 +2°C° 0.2 mm 3 mps 745 mmHg 96%
23:00 +2°C° 0.2 mm 3 mps 744 mmHg 96%

Tomorrow, 21 April, Wednesday

Time Temperature Precipitation Wind Pressure Humidity
00:00 +1°C° 0.7 mm 4 mps 743 mmHg 96%
01:00 +1°C° 0.7 mm 4 mps 742 mmHg 96%
02:00 +1°C° 0.7 mm 4 mps 741 mmHg 96%
03:00 0°C° 1.1 mm 4 mps 740 mmHg 96%
04:00 0°C° 1.1 mm 4 mps 739 mmHg 96%
05:00 -1°C° 1.1 mm 4 mps 738 mmHg 97%
06:00 -1°C° 0.7 mm 4 mps 738 mmHg 97%
07:00 -1°C° 0.7 mm 4 mps 737 mmHg 98%
08:00 0°C° 0.7 mm 3 mps 736 mmHg 98%
09:00 0°C° 0.8 mm 3 mps 736 mmHg 98%
10:00 0°C° 0.8 mm 3 mps 736 mmHg 98%
11:00 +1°C° 0.8 mm 3 mps 735 mmHg 98%
12:00 +1°C° 0.2 mm 3 mps 736 mmHg 98%
13:00 +1°C° 0.2 mm 3 mps 736 mmHg 98%
14:00 0°C° 0.2 mm 4 mps 737 mmHg 97%
15:00 0°C° 0.1 mm 4 mps 737 mmHg 97%
16:00 0°C° 0.1 mm 4 mps 738 mmHg 96%
17:00 0°C° 0.1 mm 4 mps 739 mmHg 95%
18:00 0°C° 0.1 mm 4 mps 739 mmHg 96%
19:00 0°C° 0.1 mm 4 mps 740 mmHg 97%
20:00 0°C° 0.1 mm 4 mps 740 mmHg 97%
21:00 +1°C° 0.2 mm 3 mps 741 mmHg 97%
22:00 +2°C° 0.2 mm 3 mps 741 mmHg 97%
23:00 +2°C° 0.2 mm 3 mps 741 mmHg 97%

Day after tomorrow, 22 April, Thursday

Time Temperature Precipitation Wind Pressure Humidity
00:00 +2°C° 0 mm 3 mps 742 mmHg 97%
01:00 +2°C° 0 mm 3 mps 742 mmHg 97%
02:00 +3°C° 0 mm 2 mps 742 mmHg 96%
03:00 +3°C° 0 mm 2 mps 743 mmHg 96%
04:00 +2°C° 0 mm 2 mps 743 mmHg 95%
05:00 +2°C° 0 mm 2 mps 743 mmHg 94%
06:00 +3°C° 0 mm 3 mps 744 mmHg 90%
07:00 +4°C° 0 mm 3 mps 744 mmHg 85%
08:00 +5°C° 0 mm 3 mps 745 mmHg 80%
09:00 +7°C° 0 mm 4 mps 745 mmHg 74%
10:00 +8°C° 0 mm 4 mps 745 mmHg 67%
11:00 +11°C° 0 mm 4 mps 745 mmHg 61%
12:00 +11°C° 0 mm 4 mps 745 mmHg 58%
13:00 +12°C° 0 mm 4 mps 745 mmHg 55%
14:00 +12°C° 0 mm 4 mps 745 mmHg 52%
15:00 +12°C° 0.1 mm 4 mps 746 mmHg 57%
16:00 +11°C° 0.1 mm 4 mps 746 mmHg 63%
17:00 +11°C° 0.1 mm 4 mps 746 mmHg 69%
18:00 +9°C° 0 mm 3 mps 746 mmHg 75%
19:00 +8°C° 0 mm 3 mps 746 mmHg 82%
20:00 +7°C° 0 mm 3 mps 747 mmHg 89%
21:00 +5°C° 0 mm 3 mps 746 mmHg 88%
22:00 +5°C° 0 mm 3 mps 746 mmHg 88%
23:00 +5°C° 0 mm 3 mps 746 mmHg 88%

23 April, Friday

Time Temperature Precipitation Wind Pressure Humidity
00:00 +4°C° 0 mm 3 mps 746 mmHg 87%
01:00 +4°C° 0 mm 3 mps 746 mmHg 87%
02:00 +4°C° 0 mm 3 mps 746 mmHg 87%
03:00 +4°C° 0 mm 4 mps 746 mmHg 88%
04:00 +4°C° 0 mm 4 mps 746 mmHg 89%
05:00 +4°C° 0 mm 4 mps 745 mmHg 90%
06:00 +6°C° 0 mm 4 mps 745 mmHg 86%
07:00 +7°C° 0 mm 5 mps 745 mmHg 82%
08:00 +9°C° 0 mm 5 mps 745 mmHg 78%
09:00 +10°C° 0.1 mm 5 mps 745 mmHg 75%
10:00 +12°C° 0.1 mm 5 mps 745 mmHg 73%
11:00 +13°C° 0.1 mm 5 mps 745 mmHg 71%
12:00 +12°C° 0.1 mm 4 mps 745 mmHg 72%
13:00 +12°C° 0.1 mm 4 mps 745 mmHg 73%
14:00 +12°C° 0.1 mm 3 mps 744 mmHg 75%
15:00 +12°C° 0.3 mm 4 mps 744 mmHg 74%
16:00 +13°C° 0.3 mm 4 mps 743 mmHg 73%
17:00 +13°C° 0.3 mm 5 mps 743 mmHg 72%
18:00 +11°C° 1.8 mm 4 mps 743 mmHg 79%
19:00 +9°C° 1.8 mm 3 mps 743 mmHg 87%
20:00 +7°C° 1.8 mm 2 mps 743 mmHg 95%
21:00 +7°C° 0.3 mm 2 mps 743 mmHg 94%
22:00 +6°C° 0.3 mm 2 mps 743 mmHg 94%
23:00 +6°C° 0.3 mm 2 mps 743 mmHg 93%

24 April, Saturday

Time Temperature Precipitation Wind Pressure Humidity
00:00 +5°C° 0.9 mm 2 mps 743 mmHg 94%
01:00 +4°C° 0.9 mm 3 mps 742 mmHg 95%
02:00 +3°C° 0.9 mm 4 mps 742 mmHg 95%
03:00 +3°C° 1.2 mm 3 mps 742 mmHg 95%
04:00 +3°C° 1.2 mm 2 mps 742 mmHg 95%
05:00 +4°C° 1.2 mm 1 mps 742 mmHg 95%
06:00 +4°C° 0.4 mm 1 mps 742 mmHg 93%
07:00 +5°C° 0.4 mm 1 mps 742 mmHg 91%
08:00 +5°C° 0.4 mm 1 mps 742 mmHg 88%
09:00 +6°C° 0.3 mm 1 mps 742 mmHg 86%
10:00 +6°C° 0.3 mm 1 mps 742 mmHg 83%
11:00 +7°C° 0.3 mm 1 mps 742 mmHg 80%
12:00 +7°C° 0.2 mm 1 mps 741 mmHg 77%
13:00 +7°C° 0.2 mm 1 mps 741 mmHg 75%
14:00 +8°C° 0.2 mm 1 mps 741 mmHg 72%
15:00 +7°C° 0.4 mm 1 mps 741 mmHg 77%
16:00 +6°C° 0.4 mm 2 mps 741 mmHg 82%
17:00 +5°C° 0.4 mm 2 mps 740 mmHg 87%
18:00 +4°C° 0.4 mm 3 mps 740 mmHg 86%
19:00 +3°C° 0.4 mm 3 mps 740 mmHg 86%
20:00 +3°C° 0.4 mm 4 mps 740 mmHg 86%
21:00 +2°C° 0 mm 3 mps 740 mmHg 85%
22:00 +1°C° 0 mm 3 mps 740 mmHg 85%
23:00 +1°C° 0 mm 3 mps 740 mmHg 85%

25 April, Sunday

Time Temperature Precipitation Wind Pressure Humidity
00:00 0°C° 0 mm 3 mps 740 mmHg 86%
01:00 0°C° 0 mm 3 mps 739 mmHg 87%
02:00 -1°C° 0 mm 4 mps 739 mmHg 89%
03:00 -1°C° 0 mm 4 mps 739 mmHg 90%
04:00 -2°C° 0 mm 4 mps 739 mmHg 91%
05:00 -2°C° 0 mm 5 mps 739 mmHg 92%
06:00 -1°C° 0 mm 5 mps 739 mmHg 86%
07:00 0°C° 0 mm 5 mps 739 mmHg 80%
08:00 +1°C° 0 mm 6 mps 739 mmHg 74%
09:00 +2°C° 0 mm 6 mps 739 mmHg 68%
10:00 +3°C° 0 mm 6 mps 739 mmHg 62%
11:00 +3°C° 0 mm 6 mps 739 mmHg 56%
12:00 +4°C° 0.1 mm 6 mps 739 mmHg 52%
13:00 +4°C° 0.1 mm 6 mps 739 mmHg 49%
14:00 +4°C° 0.1 mm 6 mps 739 mmHg 46%
15:00 +5°C° 0.1 mm 5 mps 739 mmHg 48%
16:00 +3°C° 0.1 mm 5 mps 739 mmHg 51%
17:00 +4°C° 0.1 mm 4 mps 739 mmHg 53%
18:00 +3°C° 0 mm 3 mps 739 mmHg 59%
19:00 +1°C° 0 mm 3 mps 739 mmHg 66%
20:00 +1°C° 0 mm 2 mps 739 mmHg 72%
21:00 -1°C° 0 mm 3 mps 739 mmHg 76%
22:00 -1°C° 0 mm 3 mps 739 mmHg 79%
23:00 -1°C° 0 mm 3 mps 738 mmHg 83%
Show more